Weather History for Winchester, VA

Change the Weather History Date:

Friday, January 4, 2013

  Actual Average Record
Temperature  
Mean Temperature 36 °F -  
Max Temperature 39 °F 43 °F 75 °F (1997)
Min Temperature 32 °F 27 °F 6 °F (2012)
Degree Days  
Heating Degree Days 30    
Moisture  
Dew Point 23 °F    
Average Humidity 64    
Maximum Humidity 70    
Minimum Humidity 56    
Precipitation  
Precipitation 0.00 in - - ()
Sea Level Pressure  
Sea Level Pressure 30.15 in    
Wind  
Wind Speed 9 mph (West)    
Max Wind Speed 16 mph    
Max Gust Speed 22 mph    
Visibility 10 miles    
Events      
Averages and records for this station are not official NWS values.
T = Trace of Precipitation, MM = Missing Value Source: NWS Daily Summary

Daily Weather History Graph

Daily Weather History Graph

Search for Another Location

Airport:

Trip Planner

Search our weather history database for the weather conditions in past years. The results will help you decide how hot, cold, wet, or windy it might be!

Date:

Astronomy

Jan. 04, 2013 Rise Set
Actual Time 7:32 AM EST 5:03 PM EST
Civil Twilight 7:02 AM EST 5:33 PM EST
Nautical Twilight 6:28 AM EST 6:06 PM EST
Astronomical Twilight 5:56 AM EST 6:39 PM EST
Moon No Moon Rise 11:17 AM EST (1/4)
Length of Visible Light 10h 30m
Length of Day
9h 31m
Waning Gibbous, 55% of the Moon is Illuminated
Jan 4
Waning Gibbous
Jan 4
Last Quarter
Jan 11
New
Jan 18
First Quarter
Jan 26
Full

Hourly Weather History & Observations

Time (EST) Temp. Windchill Dew Point Humidity Pressure Visibility Wind Dir Wind Speed Gust Speed Precip Events Conditions
12:15 AM 32.0 °F 26.4 °F 21.2 °F 64% 30.15 in 10.0 mi West 5.8 mph - N/A   Mostly Cloudy
12:35 AM 32.0 °F 22.5 °F 23.0 °F 69% 30.14 in 10.0 mi WNW 12.7 mph - N/A   Scattered Clouds
12:55 AM 32.0 °F 24.8 °F 23.0 °F 69% 30.15 in 10.0 mi West 8.1 mph 16.1 mph N/A   Scattered Clouds
1:15 AM 32.0 °F 23.0 °F 23.0 °F 69% 30.15 in 10.0 mi WNW 11.5 mph - N/A   Mostly Cloudy
1:35 AM 33.8 °F 25.3 °F 23.0 °F 65% 30.15 in 10.0 mi West 11.5 mph - N/A   Overcast
1:55 AM 33.8 °F - 23.0 °F 65% 30.16 in 10.0 mi Calm Calm - N/A   Overcast
2:15 AM 32.0 °F 27.5 °F 23.0 °F 69% 30.17 in 10.0 mi West 4.6 mph - N/A   Overcast
2:35 AM 32.0 °F 23.6 °F 23.0 °F 69% 30.17 in 10.0 mi West 10.4 mph - N/A   Overcast
2:55 AM 32.0 °F 23.0 °F 23.0 °F 69% 30.18 in 10.0 mi WNW 11.5 mph - N/A   Overcast
3:15 AM 32.0 °F 23.0 °F 23.0 °F 69% 30.18 in 10.0 mi West 11.5 mph 20.7 mph N/A   Overcast
3:35 AM 32.0 °F 22.1 °F 23.0 °F 69% 30.18 in 10.0 mi WNW 13.8 mph - N/A   Scattered Clouds
3:55 AM 32.0 °F 21.2 °F 23.0 °F 69% 30.18 in 10.0 mi WNW 16.1 mph - N/A   Clear
4:15 AM 32.0 °F 22.5 °F 23.0 °F 69% 30.18 in 10.0 mi WNW 12.7 mph 21.9 mph N/A   Scattered Clouds
6:55 AM 32.0 °F 24.2 °F 23.0 °F 69% 30.18 in 10.0 mi West 9.2 mph - N/A   Overcast
7:15 AM 32.0 °F 26.4 °F 23.0 °F 69% 30.18 in 10.0 mi WSW 5.8 mph - N/A   Overcast
7:35 AM 32.0 °F 26.4 °F 23.0 °F 69% 30.18 in 10.0 mi West 5.8 mph - N/A   Overcast
8:15 AM 32.0 °F 25.6 °F 23.0 °F 69% 30.17 in 10.0 mi West 6.9 mph - N/A   Scattered Clouds
8:35 AM 32.0 °F 24.8 °F 23.0 °F 69% 30.18 in 10.0 mi West 8.1 mph - N/A   Scattered Clouds
8:55 AM 32.0 °F 26.4 °F 23.0 °F 69% 30.17 in 10.0 mi West 5.8 mph - N/A   Clear
9:15 AM 33.8 °F 27.0 °F 23.0 °F 65% 30.17 in 10.0 mi West 8.1 mph - N/A   Clear
9:35 AM 33.8 °F 27.0 °F 23.0 °F 65% 30.18 in 10.0 mi West 8.1 mph - N/A   Scattered Clouds
9:55 AM 33.8 °F 24.3 °F 23.0 °F 65% 30.18 in 10.0 mi West 13.8 mph 19.6 mph N/A   Scattered Clouds
10:15 AM 33.8 °F 24.8 °F 23.0 °F 65% 30.18 in 10.0 mi West 12.7 mph 18.4 mph N/A   Scattered Clouds
10:35 AM 35.6 °F 27.5 °F 23.0 °F 60% 30.19 in 10.0 mi WNW 11.5 mph 16.1 mph N/A   Clear
10:55 AM 35.6 °F 26.2 °F 23.0 °F 60% 30.18 in 10.0 mi West 15.0 mph - N/A   Clear
11:15 AM 35.6 °F 26.6 °F 24.8 °F 65% 30.17 in 10.0 mi WNW 13.8 mph 17.3 mph N/A   Clear
11:35 AM 35.6 °F 26.2 °F 24.8 °F 65% 30.16 in 10.0 mi WNW 15.0 mph - N/A   Clear
11:55 AM 35.6 °F 25.9 °F 26.6 °F 70% 30.15 in 10.0 mi WNW 16.1 mph 21.9 mph N/A   Clear
12:15 PM 35.6 °F 27.5 °F 24.8 °F 65% 30.14 in 10.0 mi West 11.5 mph - N/A   Clear
12:35 PM 37.4 °F 29.8 °F 24.8 °F 60% 30.13 in 10.0 mi WNW 11.5 mph - N/A   Scattered Clouds
12:55 PM 37.4 °F 31.4 °F 26.6 °F 65% 30.12 in 10.0 mi WNW 8.1 mph - N/A   Clear
1:15 PM 37.4 °F 30.3 °F 24.8 °F 60% 30.11 in 10.0 mi West 10.4 mph - N/A   Clear
1:35 PM 39.2 °F 31.6 °F 24.8 °F 56% 30.11 in 10.0 mi West 12.7 mph 16.1 mph N/A   Clear
1:55 PM 39.2 °F 31.6 °F 24.8 °F 56% 30.11 in 10.0 mi West 12.7 mph 20.7 mph N/A   Clear
2:15 PM 37.4 °F 28.2 °F 24.8 °F 60% 30.11 in 10.0 mi West 16.1 mph 20.7 mph N/A   Clear
2:35 PM 37.4 °F 28.9 °F 23.0 °F 56% 30.11 in 10.0 mi West 13.8 mph - N/A   Clear
3:15 PM 37.4 °F 29.3 °F 23.0 °F 56% 30.11 in 10.0 mi West 12.7 mph - N/A   Scattered Clouds
3:35 PM 37.4 °F 30.8 °F 23.0 °F 56% 30.12 in 10.0 mi WSW 9.2 mph - N/A   Clear
3:55 PM 37.4 °F 30.8 °F 23.0 °F 56% 30.11 in 10.0 mi West 9.2 mph - N/A   Scattered Clouds
4:15 PM 35.6 °F 28.6 °F 23.0 °F 60% 30.12 in 10.0 mi West 9.2 mph - N/A   Clear
4:35 PM 35.6 °F 30.7 °F 23.0 °F 60% 30.12 in 10.0 mi West 5.8 mph - N/A   Clear
4:55 PM 35.6 °F 28.0 °F 23.0 °F 60% 30.13 in 10.0 mi West 10.4 mph - N/A   Clear
5:15 PM 33.8 °F 28.6 °F 23.0 °F 65% 30.12 in 10.0 mi West 5.8 mph - N/A   Scattered Clouds
5:55 PM 33.8 °F 25.8 °F 23.0 °F 65% 30.13 in 10.0 mi WSW 10.4 mph - N/A   Clear
6:15 PM 33.8 °F 27.0 °F 23.0 °F 65% 30.13 in 10.0 mi West 8.1 mph - N/A   Clear
6:35 PM 33.8 °F 25.3 °F 23.0 °F 65% 30.14 in 10.0 mi West 11.5 mph 17.3 mph N/A   Clear
6:55 PM 33.8 °F 28.6 °F 23.0 °F 65% 30.15 in 10.0 mi West 5.8 mph - N/A   Scattered Clouds
7:15 PM 33.8 °F 27.0 °F 23.0 °F 65% 30.16 in 10.0 mi West 8.1 mph - N/A   Scattered Clouds
7:35 PM 33.8 °F 27.7 °F 23.0 °F 65% 30.16 in 10.0 mi West 6.9 mph - N/A   Scattered Clouds
7:55 PM 33.8 °F 27.0 °F 21.2 °F 60% 30.16 in 10.0 mi West 8.1 mph - N/A   Scattered Clouds
8:15 PM 32.0 °F 25.6 °F 21.2 °F 64% 30.16 in 10.0 mi SW 6.9 mph - N/A   Clear
8:35 PM 32.0 °F 26.4 °F 21.2 °F 64% 30.16 in 10.0 mi SW 5.8 mph - N/A   Scattered Clouds
8:55 PM 32.0 °F 27.5 °F 21.2 °F 64% 30.16 in 10.0 mi SW 4.6 mph - N/A   Scattered Clouds
9:15 PM 32.0 °F 27.5 °F 21.2 °F 64% 30.15 in 10.0 mi SSW 4.6 mph - N/A   Clear
9:35 PM 32.0 °F 27.5 °F 21.2 °F 64% 30.16 in 10.0 mi SW 4.6 mph - N/A   Clear
9:55 PM 32.0 °F 27.5 °F 21.2 °F 64% 30.16 in 10.0 mi SW 4.6 mph - N/A   Clear
10:15 PM 32.0 °F 28.7 °F 21.2 °F 64% 30.17 in 10.0 mi SW 3.5 mph - N/A   Clear
10:35 PM 32.0 °F 27.5 °F 21.2 °F 64% 30.16 in 10.0 mi SSW 4.6 mph - N/A   Clear
10:55 PM 32.0 °F 28.7 °F 21.2 °F 64% 30.16 in 10.0 mi SW 3.5 mph - N/A   Clear
11:15 PM 32.0 °F 28.7 °F 21.2 °F 64% 30.16 in 10.0 mi SSW 3.5 mph - N/A   Clear
11:35 PM 32.0 °F 28.7 °F 21.2 °F 64% 30.16 in 10.0 mi WSW 3.5 mph - N/A   Clear
11:55 PM 33.8 °F 29.6 °F 21.2 °F 60% 30.15 in 10.0 mi SSW 4.6 mph 16.1 mph N/A   Clear